LRFT Weather Reports


Display with metric or nautical units.
time (UTC)temp
F
wind
direction
speed
MPH
gust
MPH
rain 1hr
in
rain 24hr
in
rain mn
in
humidity
%
barometer
mb
20260906020401 0 0.0 0.0 0.00 0.00 0.00
20260906014901 0 0.0 0.0 0.00 0.00 0.00
20260906013523 0 0.0 0.0 0.00 0.00 0.00
20260906011859 0 0.0 0.0 0.00 0.00 0.00
20260906010359 0 0.0 0.0 0.00 0.00 0.00
20260906005022 0 0.0 0.0 0.00 0.00 0.00
20260906003532 0 0.0 0.0 0.00 0.00 0.00
20260906002023 0 0.0 0.0 0.00 0.00 0.00
20260906000513 0 0.0 0.0 0.00 0.00 0.00
20260905234910 0 0.0 0.0 0.00 0.00 0.00
20260905233359 0 0.0 0.0 0.00 0.00 0.00
20260905232025 0 0.0 0.0 0.00 0.00 0.00
20260905230432 0 0.0 0.0 0.00 0.00 0.00
20260905225024 0 0.0 0.0 0.00 0.00 0.00
20260905223413 0 0.0 0.0 0.00 0.00 0.00
20260905222009 0 0.0 0.0 0.00 0.00 0.00
20260905220522 0 0.0 0.0 0.00 0.00 0.00
20260905215021 0 0.0 0.0 0.00 0.00 0.00
20260905213400 0 0.0 0.0 0.00 0.00 0.00
20260905211856 0 0.0 0.0 0.00 0.00 0.00
20260905210400 0 0.0 0.0 0.00 0.00 0.00
20260905204910 75 250 7.0 0.0 0.00 0.00 0.00 41 1014.0
20260905203359 75 250 7.0 0.0 0.00 0.00 0.00 41 1014.0
20260905201859 75 250 7.0 0.0 0.00 0.00 0.00 41 1014.0
20260905200522 0 0.0 0.0 0.00 0.00 0.00
20260905195015 0 0.0 0.0 0.00 0.00 0.00
20260905193400 81 250 9.0 0.0 0.00 0.00 0.00 34 1014.0
20260905191929 81 250 9.0 0.0 0.00 0.00 0.00 34 1014.0
20260905190401 0 0.0 0.0 0.00 0.00 0.00
20260905184857 82 240 9.0 0.0 0.00 0.00 0.00 32 1014.0
20260905183405 82 240 9.0 0.0 0.00 0.00 0.00 32 1014.0
20260905181857 82 240 9.0 0.0 0.00 0.00 0.00 32 1014.0
20260905180356 82 240 9.0 0.0 0.00 0.00 0.00 32 1014.0
20260905174853 84 240 8.0 0.0 0.00 0.00 0.00 33 1014.0
20260905173359 84 240 8.0 0.0 0.00 0.00 0.00 33 1014.0
20260905171901 84 240 8.0 0.0 0.00 0.00 0.00 33 1014.0
20260905170400 84 240 8.0 0.0 0.00 0.00 0.00 33 1014.0
20260905164900 90 270 14.0 0.0 0.00 0.00 0.00 27 1014.0
20260905163401 90 270 14.0 0.0 0.00 0.00 0.00 27 1014.0
20260905161858 90 270 14.0 0.0 0.00 0.00 0.00 27 1014.0
20260905160400 90 270 14.0 0.0 0.00 0.00 0.00 27 1014.0
20260905154910 90 270 14.0 0.0 0.00 0.00 0.00 27 1014.0
20260905153359 90 270 14.0 0.0 0.00 0.00 0.00 27 1014.0
20260905151900 90 270 14.0 0.0 0.00 0.00 0.00 27 1014.0
20260905150400 90 270 14.0 0.0 0.00 0.00 0.00 27 1014.0
20260905144853 91 270 16.0 0.0 0.00 0.00 0.00 24 1014.0
20260905143359 91 270 16.0 0.0 0.00 0.00 0.00 24 1014.0
20260905141857 91 270 16.0 0.0 0.00 0.00 0.00 24 1014.0
20260905140356 91 270 16.0 0.0 0.00 0.00 0.00 24 1014.0
20260905135020 0 0.0 0.0 0.00 0.00 0.00
20260905133400 91 270 11.0 23.0 0.00 0.00 0.00 24 1014.0
20260905131902 91 270 11.0 23.0 0.00 0.00 0.00 24 1014.0
20260905130421 91 270 11.0 23.0 0.00 0.00 0.00 24 1014.0
20260905124854 91 270 16.0 0.0 0.00 0.00 0.00 26 1015.0
20260905123400 91 270 16.0 0.0 0.00 0.00 0.00 26 1015.0
20260905121927 91 270 16.0 0.0 0.00 0.00 0.00 26 1015.0
20260905120401 91 270 16.0 0.0 0.00 0.00 0.00 26 1015.0
20260905114900 88 270 16.0 0.0 0.00 0.00 0.00 29 1016.0
20260905113400 88 270 16.0 0.0 0.00 0.00 0.00 29 1016.0
20260905111918 88 270 16.0 0.0 0.00 0.00 0.00 29 1016.0
20260905110359 88 270 16.0 0.0 0.00 0.00 0.00 29 1016.0
20260905104900 88 270 16.0 0.0 0.00 0.00 0.00 29 1016.0
20260905103400 88 270 16.0 0.0 0.00 0.00 0.00 29 1016.0
20260905101859 88 270 16.0 0.0 0.00 0.00 0.00 29 1016.0
20260905100400 88 270 16.0 0.0 0.00 0.00 0.00 29 1016.0
20260905095022 0 0.0 0.0 0.00 0.00 0.00
20260905093359 84 250 14.0 0.0 0.00 0.00 0.00 35 1017.0
20260905091900 84 250 14.0 0.0 0.00 0.00 0.00 35 1017.0
20260905090400 84 250 14.0 0.0 0.00 0.00 0.00 35 1017.0
20260905084859 81 250 14.0 0.0 0.00 0.00 0.00 39 1017.0
20260905083400 81 250 14.0 0.0 0.00 0.00 0.00 39 1017.0
20260905081859 81 250 14.0 0.0 0.00 0.00 0.00 39 1017.0
20260905080400 81 250 14.0 0.0 0.00 0.00 0.00 39 1017.0
20260905074859 0 0.0 0.0 0.00 0.00 0.00
20260905073408 0 0.0 0.0 0.00 0.00 0.00
20260905071900 0 0.0 0.0 0.00 0.00 0.00
20260905070400 0 0.0 0.0 0.00 0.00 0.00
20260905064901 0 0.0 0.0 0.00 0.00 0.00
20260905063401 0 0.0 0.0 0.00 0.00 0.00
20260905061900 0 0.0 0.0 0.00 0.00 0.00
20260905060401 0 0.0 0.0 0.00 0.00 0.00
20260905054900 66 230 7.0 0.0 0.00 0.00 0.00 73 1016.0
20260905053400 66 230 7.0 0.0 0.00 0.00 0.00 73 1016.0
20260905051859 66 230 7.0 0.0 0.00 0.00 0.00 73 1016.0
20260905050400 66 230 7.0 0.0 0.00 0.00 0.00 73 1016.0
20260905044901 59 210 6.0 0.0 0.00 0.00 0.00 88 1016.0
20260905043359 59 210 6.0 0.0 0.00 0.00 0.00 88 1016.0
20260905041900 59 210 6.0 0.0 0.00 0.00 0.00 88 1016.0
20260905040359 59 210 6.0 0.0 0.00 0.00 0.00 88 1016.0
20260905034901 57 180 6.0 0.0 0.00 0.00 0.00 88 1016.0
20260905033359 57 180 6.0 0.0 0.00 0.00 0.00 88 1016.0
20260905031900 57 180 6.0 0.0 0.00 0.00 0.00 88 1016.0
20260905030400 57 180 6.0 0.0 0.00 0.00 0.00 88 1016.0
20260905024913 63 210 7.0 0.0 0.00 0.00 0.00 94 1016.0
20260905023400 63 210 7.0 0.0 0.00 0.00 0.00 94 1016.0
20260905021900 63 210 7.0 0.0 0.00 0.00 0.00 94 1016.0